EW6055 Weather Reports


time (UTC)temp
F
wind
direction
speed
knots
gust
knots
rain 1hr
in
rain 24hr
in
rain mn
in
humidity
%
barometer
mb
20260506025003 64 51 0.0 0.9 0.00 0.00 0.00 69 1013.4
20260506024523 64 51 0.0 0.9 0.00 0.00 0.00 69 1013.3
20260506024002 64 46 0.0 2.6 0.00 0.00 0.00 69 1013.4
20260506023524 64 45 0.0 2.6 0.00 0.00 0.00 69 1013.4
20260506023002 64 8 0.0 1.7 0.00 0.00 0.00 69 1013.5
20260506022502 64 6 0.0 1.7 0.00 0.00 0.00 68 1013.5
20260506022002 65 351 0.0 0.9 0.00 0.00 0.00 69 1013.4
20260506021502 65 348 0.0 1.7 0.00 0.00 0.00 68 1013.3
20260506021003 65 18 0.0 1.7 0.00 0.00 0.00 68 1013.3
20260506020503 65 120 0.0 0.9 0.00 0.00 0.00 68 1013.4
20260506020003 65 122 0.0 1.7 0.00 0.00 0.00 68 1013.4
20260506015503 65 122 0.0 1.7 0.00 0.00 0.00 67 1013.3
20260506015024 65 120 0.0 1.7 0.00 0.00 0.00 67 1013.3
20260506014503 65 0 0.0 0.0 0.00 0.00 0.00 68 1013.3
20260506014002 65 0 0.0 0.0 0.00 0.00 0.00 67 1013.4
20260506013502 65 0 0.0 0.0 0.00 0.00 0.00 68 1013.4
20260506013002 65 0 0.0 0.0 0.00 0.00 0.00 68 1013.3
20260506012503 64 0 0.0 0.0 0.00 0.00 0.00 68 1013.4
20260506012003 64 284 0.0 0.9 0.00 0.00 0.00 68 1013.4
20260506011502 64 282 0.0 1.7 0.00 0.00 0.00 68 1013.4
20260506011003 64 281 0.0 1.7 0.00 0.00 0.00 68 1013.4
20260506010503 64 0 0.0 0.0 0.00 0.00 0.00 68 1013.4
20260506010003 64 308 0.0 2.6 0.00 0.00 0.00 68 1013.4
20260506005503 65 301 0.9 2.6 0.00 0.00 0.00 68 1013.3
20260506005002 65 287 0.0 1.7 0.00 0.00 0.00 68 1013.4
20260506004503 65 281 0.9 3.5 0.00 0.00 0.00 68 1013.4
20260506004003 65 275 0.0 3.5 0.00 0.00 0.00 68 1013.5
20260506003502 65 265 0.0 2.6 0.00 0.00 0.00 68 1013.5
20260506003002 65 262 0.0 2.6 0.00 0.00 0.00 68 1013.5
20260506002502 64 267 0.9 2.6 0.00 0.00 0.00 68 1013.4
20260506002003 65 270 0.9 1.7 0.00 0.00 0.00 67 1013.5
20260506001502 65 246 0.0 1.7 0.00 0.00 0.00 68 1013.5
20260506001003 65 0 0.0 0.0 0.00 0.00 0.00 68 1013.6
20260506000524 65 0 0.0 0.0 0.00 0.00 0.00 68 1013.6
20260506000003 65 0 0.0 0.0 0.00 0.00 0.00 68 1013.6
20260505235503 65 0 0.0 0.0 0.00 0.00 0.00 67 1013.7
20260505235003 65 0 0.0 0.0 0.00 0.00 0.00 67 1013.8
20260505234503 65 0 0.0 0.0 0.00 0.00 0.00 67 1013.8
20260505234002 65 0 0.0 0.0 0.00 0.00 0.00 67 1013.9
20260505233502 66 0 0.0 0.0 0.00 0.00 0.00 67 1013.9
20260505233002 66 0 0.0 0.0 0.00 0.00 0.00 67 1013.8
20260505232502 65 0 0.0 0.0 0.00 0.00 0.00 67 1013.8
20260505232002 65 0 0.0 0.0 0.00 0.00 0.00 67 1013.8
20260505231503 65 279 0.0 2.6 0.00 0.00 0.00 67 1013.8
20260505231002 65 301 0.9 3.5 0.00 0.00 0.00 67 1013.9
20260505230502 65 305 0.9 3.5 0.00 0.00 0.00 66 1013.9
20260505230003 65 265 0.0 2.6 0.00 0.00 0.00 66 1014.0
20260505225503 65 0 0.0 0.0 0.00 0.00 0.00 66 1014.0
20260505225003 65 284 0.0 1.7 0.00 0.00 0.00 67 1014.0
20260505224502 65 280 0.9 3.5 0.00 0.00 0.00 67 1014.1
20260505224024 65 267 0.9 3.5 0.00 0.00 0.00 67 1014.1
20260505223523 65 261 0.9 2.6 0.00 0.00 0.00 67 1014.2
20260505223024 65 271 0.9 2.6 0.00 0.00 0.00 67 1014.2
20260505222502 65 300 0.9 4.3 0.00 0.00 0.00 68 1014.2
20260505222003 65 292 0.9 4.3 0.00 0.00 0.00 67 1014.2
20260505221503 65 258 0.9 3.5 0.00 0.00 0.00 67 1014.2
20260505221024 65 266 0.9 3.5 0.00 0.00 0.00 67 1014.2
20260505220503 65 278 0.9 3.5 0.00 0.00 0.00 67 1014.3
20260505220002 65 276 0.0 2.6 0.00 0.00 0.00 68 1014.3
20260505215502 65 264 0.0 0.9 0.00 0.00 0.00 68 1014.2
20260505215024 65 240 0.0 2.6 0.00 0.00 0.00 68 1014.3
20260505214524 65 258 0.9 3.5 0.00 0.00 0.00 68 1014.3
20260505214002 64 260 0.9 3.5 0.00 0.00 0.00 69 1014.3
20260505213503 64 235 0.9 2.6 0.00 0.00 0.00 68 1014.3
20260505213002 64 270 0.9 2.6 0.00 0.00 0.00 68 1014.4
20260505212524 64 296 0.0 2.6 0.00 0.00 0.00 68 1014.3
20260505212024 64 259 0.0 2.6 0.00 0.00 0.00 69 1014.4
20260505211502 64 243 0.9 2.6 0.00 0.00 0.00 68 1014.4
20260505211023 64 263 0.9 2.6 0.00 0.00 0.00 69 1014.5
20260505210524 64 286 0.9 2.6 0.00 0.00 0.00 69 1014.5
20260505210024 64 0 0.0 0.0 0.00 0.00 0.00 70 1014.5
20260505205503 64 237 0.0 1.7 0.00 0.00 0.00 70 1014.4
20260505205003 63 233 0.9 2.6 0.00 0.00 0.00 70 1014.5
20260505204524 63 246 0.9 2.6 0.00 0.00 0.00 70 1014.6
20260505204003 63 282 0.0 1.7 0.00 0.00 0.00 70 1014.6
20260505203502 63 0 0.0 0.0 0.00 0.00 0.00 71 1014.6
20260505203003 63 295 0.9 2.6 0.00 0.00 0.00 70 1014.7
20260505202503 63 295 0.9 2.6 0.00 0.00 0.00 70 1014.7
20260505202003 63 278 0.0 0.9 0.00 0.00 0.00 71 1014.7
20260505201503 63 0 0.0 0.0 0.00 0.00 0.00 71 1014.7
20260505201024 63 0 0.0 0.0 0.00 0.00 0.00 71 1014.8
20260505200503 63 115 0.0 2.6 0.00 0.00 0.00 71 1014.8
20260505200023 63 166 0.9 2.6 0.00 0.00 0.00 71 1014.8
20260505195503 63 221 0.9 2.6 0.00 0.00 0.00 71 1014.8
20260505195024 63 221 0.9 1.7 0.00 0.00 0.00 71 1014.8
20260505194503 63 207 0.9 1.7 0.00 0.00 0.00 70 1014.8
20260505194003 63 193 0.0 1.7 0.00 0.00 0.00 71 1014.8
20260505193503 63 0 0.0 0.0 0.00 0.00 0.00 71 1014.8
20260505193003 62 177 0.0 2.6 0.00 0.00 0.00 73 1014.9
20260505192503 62 185 0.9 2.6 0.00 0.00 0.00 72 1014.9
20260505192024 62 192 0.0 1.7 0.00 0.00 0.00 73 1014.8
20260505191503 62 0 0.0 0.0 0.00 0.00 0.00 73 1014.8
20260505191002 61 0 0.0 0.0 0.00 0.00 0.00 74 1014.8
20260505190503 61 109 0.0 0.9 0.00 0.00 0.00 74 1014.8
20260505190003 61 132 0.0 2.6 0.00 0.00 0.00 73 1014.9
20260505185503 61 148 0.9 2.6 0.00 0.00 0.00 73 1014.8
20260505185003 61 178 0.9 1.7 0.00 0.00 0.00 74 1014.9
20260505184503 61 200 0.9 1.7 0.00 0.00 0.00 74 1014.9
20260505184024 61 232 0.9 1.7 0.00 0.00 0.00 75 1014.9
20260505183503 61 240 0.9 2.6 0.00 0.00 0.00 75 1015.0
20260505183003 61 239 0.0 2.6 0.00 0.00 0.00 75 1014.9
20260505182524 60 235 0.0 1.7 0.00 0.00 0.00 76 1014.8
20260505182002 60 202 0.9 1.7 0.00 0.00 0.00 77 1014.8
20260505181502 60 210 0.9 1.7 0.00 0.00 0.00 77 1014.8
20260505181003 60 211 0.9 1.7 0.00 0.00 0.00 78 1014.8
20260505180503 59 173 0.0 0.9 0.00 0.00 0.00 78 1014.8
20260505180003 59 247 0.9 2.6 0.00 0.00 0.00 78 1014.8
20260505175503 59 231 0.9 2.6 0.00 0.00 0.00 79 1014.8
20260505175003 59 210 0.9 2.6 0.00 0.00 0.00 79 1014.8
20260505174503 58 211 0.9 1.7 0.00 0.00 0.00 79 1014.8
20260505174003 58 201 0.9 1.7 0.00 0.00 0.00 80 1014.7
20260505173524 58 190 0.9 1.7 0.00 0.00 0.00 80 1014.7
20260505173024 58 196 0.9 1.7 0.00 0.00 0.00 81 1014.7
20260505172503 58 210 0.9 1.7 0.00 0.00 0.00 82 1014.7
20260505172024 57 208 0.9 4.3 0.00 0.00 0.00 83 1014.6
20260505171503 57 152 0.9 4.3 0.00 0.00 0.00 85 1014.6
20260505171003 56 133 0.9 3.5 0.00 0.00 0.00 85 1014.6
20260505170524 56 139 0.9 2.6 0.00 0.00 0.00 86 1014.6
20260505170003 56 172 0.9 2.6 0.00 0.00 0.00 86 1014.6
20260505165524 56 193 0.9 2.6 0.00 0.00 0.00 87 1014.5
20260505165003 56 231 0.9 2.6 0.00 0.00 0.00 87 1014.5
20260505164524 55 228 0.9 2.6 0.00 0.00 0.00 87 1014.5
20260505164002 55 214 0.0 2.6 0.00 0.00 0.00 87 1014.5
20260505163503 55 0 0.0 0.0 0.00 0.00 0.00 88 1014.5
20260505163003 55 0 0.0 0.0 0.00 0.00 0.00 88 1014.4
20260505162503 55 0 0.0 0.0 0.00 0.00 0.00 89 1014.3
20260505162002 55 0 0.0 0.0 0.00 0.00 0.00 90 1014.4
20260505161503 54 0 0.0 0.0 0.00 0.00 0.00 90 1014.3
20260505161024 54 0 0.0 0.0 0.00 0.00 0.00 90 1014.3
20260505160502 54 0 0.0 0.0 0.00 0.00 0.00 90 1014.3
20260505153024 53 0 0.0 0.0 0.00 0.00 0.00 92 1014.3
20260505152524 53 0 0.0 0.0 0.00 0.00 0.00 92 1014.2
20260505152002 53 0 0.0 0.0 0.00 0.00 0.00 92 1014.3
20260505151524 53 0 0.0 0.0 0.00 0.00 0.00 92 1014.2
20260505151003 53 0 0.0 0.0 0.00 0.00 0.00 92 1014.2
20260505150503 53 0 0.0 0.0 0.00 0.00 0.00 92 1014.2
20260505140503 53 0 0.0 0.0 0.00 0.00 0.00 90 1013.7
20260505125003 53 179 0.9 1.7 0.00 0.00 0.00 88 1013.2
20260505124524 53 168 0.0 1.7 0.00 0.00 0.00 88 1013.2
20260505124003 53 186 0.0 0.9 0.00 0.00 0.00 88 1013.2
20260505123503 53 0 0.0 0.0 0.00 0.00 0.00 88 1013.2
20260505123003 53 198 0.0 1.7 0.00 0.00 0.00 88 1013.1
20260505122503 53 178 0.0 1.7 0.00 0.00 0.00 88 1013.1
20260505122003 53 172 0.0 1.7 0.00 0.00 0.00 88 1013.2
20260505121503 53 200 0.0 0.9 0.00 0.00 0.00 88 1013.2
20260505121003 53 0 0.0 0.0 0.00 0.00 0.00 88 1013.1
20260505120503 53 0 0.0 0.0 0.00 0.00 0.00 88 1013.1
20260505120003 53 0 0.0 0.0 0.00 0.00 0.00 88 1013.1
20260505115524 53 213 0.0 0.9 0.00 0.00 0.00 88 1013.0
20260505114503 53 210 0.0 1.7 0.00 0.00 0.00 89 1013.0
20260505114003 53 202 0.0 1.7 0.00 0.00 0.00 89 1013.0
20260505113503 53 204 0.0 1.7 0.00 0.00 0.00 89 1013.0
20260505113003 53 210 0.9 2.6 0.00 0.00 0.00 88 1013.1
20260505112503 53 203 0.9 2.6 0.00 0.00 0.00 88 1013.0
20260505112003 53 192 0.0 1.7 0.00 0.00 0.00 88 1012.9
20260505111503 53 0 0.0 0.0 0.00 0.00 0.00 88 1012.9
20260505111024 53 0 0.0 0.0 0.00 0.00 0.00 88 1012.9
20260505110503 53 198 0.0 0.9 0.00 0.00 0.00 88 1012.9
20260505102003 53 183 0.9 1.7 0.00 0.00 0.00 88 1012.5
20260505101503 53 184 0.0 1.7 0.00 0.00 0.00 88 1012.4
20260505101003 53 201 0.0 1.7 0.00 0.00 0.00 88 1012.5
20260505100524 53 195 0.0 1.7 0.00 0.00 0.00 89 1012.5
20260505100003 53 200 0.9 1.7 0.00 0.00 0.00 89 1012.5
20260505095503 53 206 0.0 1.7 0.00 0.00 0.00 89 1012.5
20260505095003 53 0 0.0 0.0 0.00 0.00 0.00 89 1012.5
20260505094524 53 153 0.0 0.9 0.00 0.00 0.00 89 1012.5
20260505094003 53 153 0.0 0.9 0.00 0.00 0.00 89 1012.4
20260505093503 53 168 0.0 1.7 0.00 0.00 0.00 89 1012.3
20260505093003 53 183 0.0 1.7 0.00 0.00 0.00 89 1012.3
20260505092503 53 197 0.0 1.7 0.00 0.00 0.00 89 1012.2
20260505092024 53 196 0.9 1.7 0.00 0.00 0.00 89 1012.2
20260505091503 53 190 0.9 0.9 0.00 0.00 0.00 89 1012.2
20260505091003 53 190 0.9 1.7 0.00 0.00 0.00 89 1012.1
20260505090503 53 191 0.9 1.7 0.00 0.00 0.00 88 1012.2
20260505090003 53 188 0.0 1.7 0.00 0.00 0.00 88 1012.1
20260505085503 53 0 0.0 0.0 0.00 0.00 0.00 88 1012.1
20260505085024 53 212 0.9 1.7 0.00 0.00 0.00 88 1012.1
20260505084503 53 199 0.9 1.7 0.00 0.00 0.00 88 1012.0
20260505084024 53 189 0.9 1.7 0.00 0.00 0.00 87 1012.0
20260505083503 53 207 0.9 2.6 0.00 0.00 0.00 87 1012.0
20260505083003 53 203 0.9 2.6 0.00 0.00 0.00 87 1012.0
20260505082503 53 191 0.9 1.7 0.00 0.00 0.00 87 1012.0
20260505082003 54 215 0.0 1.7 0.00 0.00 0.00 87 1012.0
20260505081503 54 206 0.9 1.7 0.00 0.00 0.00 87 1012.0
20260505081003 54 203 0.9 2.6 0.00 0.00 0.00 86 1011.9
20260505080503 54 199 0.9 2.6 0.00 0.00 0.00 86 1011.9
20260505080003 54 193 0.9 2.6 0.00 0.00 0.00 86 1011.8
20260505075503 54 196 0.9 2.6 0.00 0.00 0.00 86 1011.7
20260505075003 54 191 0.9 2.6 0.00 0.00 0.00 86 1011.8
20260505074503 54 191 0.9 1.7 0.00 0.00 0.00 85 1011.7
20260505074003 54 191 0.9 3.5 0.00 0.00 0.00 86 1011.5
20260505073503 54 193 0.9 3.5 0.00 0.00 0.00 85 1011.5
20260505073003 54 198 0.9 6.1 0.00 0.00 0.00 85 1011.5
20260505072503 54 192 0.9 6.1 0.00 0.00 0.00 85 1011.5
20260505072024 54 190 0.9 5.2 0.00 0.00 0.00 85 1011.4
20260505071503 54 191 0.9 5.2 0.00 0.00 0.00 84 1011.3
20260505071003 55 194 1.7 5.2 0.00 0.00 0.00 84 1011.2
20260505070503 55 192 1.7 5.2 0.00 0.00 0.00 84 1011.2
20260505070024 55 185 0.9 5.2 0.00 0.00 0.00 84 1011.1
20260505065525 55 181 0.9 3.5 0.00 0.00 0.00 83 1011.0
20260505065003 55 181 0.9 3.5 0.00 0.00 0.00 83 1011.0
20260505064525 55 186 0.9 2.6 0.00 0.00 0.00 83 1011.0
20260505064024 55 189 0.9 4.3 0.00 0.00 0.00 83 1010.9
20260505063524 55 178 0.9 4.3 0.00 0.00 0.00 82 1010.8
20260505063003 56 154 0.9 4.3 0.00 0.00 0.00 82 1010.9
20260505062503 56 160 0.9 5.2 0.00 0.00 0.00 82 1010.8
20260505062024 56 159 0.9 5.2 0.00 0.00 0.00 81 1010.7
20260505061503 56 151 0.9 3.5 0.00 0.00 0.00 81 1010.7
20260505061003 57 181 0.9 3.5 0.00 0.00 0.00 81 1010.7
20260505060503 57 185 1.7 7.8 0.00 0.00 0.00 80 1010.7
20260505060003 57 179 0.9 7.8 0.00 0.00 0.00 80 1010.7
20260505055503 57 173 0.9 4.3 0.00 0.00 0.00 80 1010.7
20260505055025 58 170 0.9 7.0 0.00 0.00 0.00 79 1010.7
20260505054503 58 177 0.9 7.0 0.00 0.00 0.00 79 1010.6
20260505054004 58 189 0.9 4.3 0.00 0.00 0.00 79 1010.6
20260505053503 59 188 0.9 7.0 0.00 0.00 0.00 78 1010.5
20260505053024 59 187 1.7 7.8 0.00 0.00 0.00 78 1010.4
20260505052503 59 189 2.6 9.6 0.00 0.00 0.00 78 1010.4
20260505052003 60 190 1.7 9.6 0.00 0.00 0.00 77 1010.4
20260505051503 60 187 1.7 7.8 0.00 0.00 0.00 77 1010.4
20260505051003 60 182 1.7 7.8 0.00 0.00 0.00 76 1010.4
20260505050503 60 180 2.6 8.7 0.00 0.00 0.00 76 1010.3
20260505041503 64 182 0.9 2.6 0.00 0.00 0.00 71 1009.6
20260505041003 64 183 0.9 1.7 0.00 0.00 0.00 71 1009.5
20260505040503 64 186 0.9 1.7 0.00 0.00 0.00 71 1009.4
20260505040004 65 190 0.9 1.7 0.00 0.00 0.00 70 1009.3
20260505035503 65 189 0.9 1.7 0.00 0.00 0.00 70 1009.3
20260505035003 65 191 0.9 1.7 0.00 0.00 0.00 71 1009.2
20260505034524 66 187 0.9 2.6 0.00 0.00 0.00 71 1009.1
20260505034025 66 191 0.9 2.6 0.00 0.00 0.00 70 1009.0
20260505033503 66 206 0.9 2.6 0.00 0.00 0.00 69 1009.0
20260505033003 67 198 0.9 2.6 0.00 0.00 0.00 69 1009.0
20260505032524 67 192 0.9 1.7 0.00 0.00 0.00 69 1008.9
20260505032003 67 193 0.9 3.5 0.00 0.00 0.00 69 1008.8
20260505031503 68 195 0.9 3.5 0.00 0.00 0.00 68 1008.8
20260505031003 68 202 0.9 3.5 0.00 0.00 0.00 67 1008.8
20260505030503 69 200 0.9 3.5 0.00 0.00 0.00 67 1008.7
20260505030004 69 194 0.9 1.7 0.00 0.00 0.00 67 1008.7
20260505025524 70 181 0.9 2.6 0.00 0.00 0.00 67 1008.6